This is the latest recevied weather packets stored in our database for station/object N6WDO. If no packets are shown the sender has not sent any weather packets the latest 10 day(s).
| Time | Temp. | Humidity | Pressure | Rain* | Wind** | Luminosity | Snow |
|---|---|---|---|---|---|---|---|
| 1778080287 | 15° C | 79% | 1021.5 hPa | 0 mm | - | 174 W/m² | - |
| 1778079984 | 14.44° C | 77% | 1021.8 hPa | 0 mm | - | 157 W/m² | - |
| 1778079681 | 13.89° C | 82% | 1021.5 hPa | 0 mm | - | 147 W/m² | - |
| 1778079378 | 13.89° C | 81% | 1021.7 hPa | 0 mm | - | 135 W/m² | - |
| 1778079075 | 13.33° C | 82% | 1021.7 hPa | 0 mm | - | 124 W/m² | - |
| 1778078772 | 12.78° C | 84% | 1021.5 hPa | 0 mm | - | 114 W/m² | - |
| 1778078469 | 12.22° C | 86% | 1021.7 hPa | 0 mm | - | 101 W/m² | - |
| 1778078166 | 11.11° C | 90% | 1021.8 hPa | 0 mm | - | 91 W/m² | - |
| 1778077864 | 10.56° C | 95% | 1021.9 hPa | 0 mm | - | 84 W/m² | - |
| 1778077562 | 10° C | 95% | 1021.8 hPa | 0 mm | - | 77 W/m² | - |
| 1778077260 | 10° C | 96% | 1021.7 hPa | 0 mm | - | 70 W/m² | - |
| 1778076957 | 9.44° C | 98% | 1021.5 hPa | 0 mm | - | 64 W/m² | - |
| 1778076656 | 9.44° C | 99% | 1021.7 hPa | 0 mm | - | 49 W/m² | - |
| 1778076353 | 8.89° C | 99% | 1021.5 hPa | 0 mm | - | 52 W/m² | - |
| 1778076050 | 7.78° C | 99% | 1021.5 hPa | 0 mm | - | 36 W/m² | - |
| 1778075747 | 7.78° C | 99% | 1021.3 hPa | 0 mm | - | 28 W/m² | - |
| 1778075443 | 7.78° C | 99% | 1021.4 hPa | 0 mm | - | 24 W/m² | - |
| 1778075140 | 7.78° C | 99% | 1021.2 hPa | 0 mm | - | 22 W/m² | - |
| 1778074835 | 7.78° C | 99% | 1021.2 hPa | 0 mm | - | 21 W/m² | - |
| 1778074533 | 6.67° C | 99% | 1021.4 hPa | 0 mm | - | 23 W/m² | - |
| 1778074230 | 6.11° C | 99% | 1021.5 hPa | 0 mm | - | 16 W/m² | - |
| 1778073927 | 6.11° C | 99% | 1021 hPa | 0 mm | - | 14 W/m² | - |
| 1778073624 | 6.11° C | 99% | 1020.9 hPa | 0 mm | - | 11 W/m² | - |
| 1778073321 | 6.11° C | 99% | 1021.1 hPa | 0 mm | - | 9 W/m² | - |
| 1778073018 | 6.11° C | 99% | 1020.8 hPa | 0 mm | - | 7 W/m² | - |
* Rain latest hour (hover to see other rain measurements)
** Current wind speed in m/s (hover to see current wind gust speed)